AUK26F HTZA-HTDA

Flight info

Callsign AUK26F
Flight time 0h 36m
Altitude 8000
Route ITGOP DULVA1A
Aircraft C208/L-SDFGR/C

Departure

Time 2026-04-25 06:21
Airport Abeid Amani Karume International Airport (HTZA)

Arrival

Time 2026-04-25 06:57
Airport Julius Nyerere International Airport (HTDA)
Time Latitude Longitude Altitude Speed Heading
2026-04-25 06:12 -6.21908 39.22224 57 ft 0 kts 181°
2026-04-25 06:14 -6.21907 39.22224 57 ft 0 kts 181°
2026-04-25 06:15 -6.21915 39.22223 57 ft 0 kts 181°
2026-04-25 06:17 -6.21914 39.22223 57 ft 0 kts 181°
2026-04-25 06:19 -6.21915 39.22223 57 ft 2 kts 181°
2026-04-25 06:20 -6.21938 39.22284 58 ft 21 kts 99°
2026-04-25 06:20 -6.22043 39.22304 56 ft 18 kts 182°
2026-04-25 06:20 -6.22169 39.22315 58 ft 18 kts 173°
2026-04-25 06:20 -6.22286 39.22330 57 ft 16 kts 164°
2026-04-25 06:21 -6.22297 39.22444 58 ft 20 kts 85°
2026-04-25 06:21 -6.22145 39.22486 55 ft 57 kts 354°
2026-04-25 06:21 -6.21515 39.22451 224 ft 108 kts 353°
2026-04-25 06:21 -6.20724 39.22412 687 ft 118 kts 354°
2026-04-25 06:22 -6.19899 39.22355 1176 ft 121 kts 352°
2026-04-25 06:22 -6.18966 39.22240 1558 ft 132 kts 351°
2026-04-25 06:22 -6.18068 39.22108 2041 ft 133 kts 352°
2026-04-25 06:22 -6.17152 39.21969 2525 ft 133 kts 351°
2026-04-25 06:23 -6.16234 39.21840 3002 ft 134 kts 352°
2026-04-25 06:23 -6.15308 39.21694 3478 ft 135 kts 351°
2026-04-25 06:23 -6.14379 39.21545 3941 ft 135 kts 351°
2026-04-25 06:23 -6.13451 39.21394 4408 ft 135 kts 351°
2026-04-25 06:24 -6.12518 39.21233 4840 ft 137 kts 351°
2026-04-25 06:24 -6.11571 39.21091 5269 ft 138 kts 353°
2026-04-25 06:24 -6.10614 39.20951 5692 ft 140 kts 353°
2026-04-25 06:24 -6.09652 39.20804 6117 ft 139 kts 354°
2026-04-25 06:25 -6.09018 39.20705 6392 ft 140 kts 354°
2026-04-25 06:25 -6.08054 39.20549 6769 ft 141 kts 353°
2026-04-25 06:25 -6.07076 39.20388 7156 ft 143 kts 354°
2026-04-25 06:25 -6.06095 39.20215 7547 ft 143 kts 354°
2026-04-25 06:26 -6.05121 39.20044 7946 ft 142 kts 353°
2026-04-25 06:26 -6.04073 39.19861 8004 ft 164 kts 354°
2026-04-25 06:26 -6.02938 39.19485 7993 ft 183 kts 325°
2026-04-25 06:26 -6.02235 39.18414 7996 ft 189 kts 282°
2026-04-25 06:27 -6.02381 39.17137 7994 ft 186 kts 240°
2026-04-25 06:27 -6.03283 39.16268 7995 ft 180 kts 206°
2026-04-25 06:27 -6.04385 39.15655 7995 ft 182 kts 210°
2026-04-25 06:27 -6.05334 39.14814 8004 ft 186 kts 224°
2026-04-25 06:28 -6.06189 39.13812 8005 ft 187 kts 227°
2026-04-25 06:28 -6.07024 39.12807 8006 ft 187 kts 226°
2026-04-25 06:28 -6.07857 39.11828 8008 ft 187 kts 225°
2026-04-25 06:28 -6.08715 39.10828 8007 ft 187 kts 225°
2026-04-25 06:29 -6.09564 39.09838 8007 ft 187 kts 226°
2026-04-25 06:29 -6.10412 39.08848 8007 ft 187 kts 226°
2026-04-25 06:29 -6.11250 39.07870 8007 ft 187 kts 226°
2026-04-25 06:29 -6.12096 39.06883 8009 ft 187 kts 226°
2026-04-25 06:30 -6.12953 39.05882 8006 ft 186 kts 226°
2026-04-25 06:30 -6.13786 39.04909 8005 ft 186 kts 226°
2026-04-25 06:30 -6.14631 39.03923 8008 ft 186 kts 226°
2026-04-25 06:30 -6.15473 39.02939 8008 ft 186 kts 226°
2026-04-25 06:31 -6.16316 39.01954 8012 ft 186 kts 225°
2026-04-25 06:31 -6.17159 39.00970 8012 ft 186 kts 226°
2026-04-25 06:31 -6.18001 38.99985 8012 ft 186 kts 226°
2026-04-25 06:31 -6.18846 38.98998 8015 ft 186 kts 226°
2026-04-25 06:32 -6.19690 38.98012 8017 ft 186 kts 226°
2026-04-25 06:32 -6.20532 38.97029 8018 ft 186 kts 226°
2026-04-25 06:32 -6.21381 38.96037 8019 ft 187 kts 226°
2026-04-25 06:32 -6.22227 38.95049 8020 ft 187 kts 226°
2026-04-25 06:33 -6.23075 38.94058 8023 ft 187 kts 225°
2026-04-25 06:33 -6.23924 38.93066 8026 ft 187 kts 225°
2026-04-25 06:33 -6.24769 38.92078 8027 ft 187 kts 225°
2026-04-25 06:33 -6.25620 38.91084 8028 ft 187 kts 226°
2026-04-25 06:34 -6.26469 38.90091 8029 ft 187 kts 225°
2026-04-25 06:34 -6.27315 38.89103 8031 ft 187 kts 226°
2026-04-25 06:34 -6.28162 38.88112 8032 ft 186 kts 226°
2026-04-25 06:34 -6.29006 38.87125 8034 ft 186 kts 226°
2026-04-25 06:35 -6.29846 38.86143 8034 ft 186 kts 226°
2026-04-25 06:35 -6.30690 38.85157 8033 ft 186 kts 226°
2026-04-25 06:35 -6.31532 38.84173 8036 ft 186 kts 226°
2026-04-25 06:35 -6.32375 38.83187 8034 ft 186 kts 226°
2026-04-25 06:36 -6.33217 38.82203 8035 ft 186 kts 226°
2026-04-25 06:36 -6.34059 38.81216 8035 ft 186 kts 226°
2026-04-25 06:36 -6.34898 38.80237 8032 ft 187 kts 226°
2026-04-25 06:36 -6.35744 38.79248 8034 ft 187 kts 226°
2026-04-25 06:37 -6.36596 38.78252 8032 ft 187 kts 227°
2026-04-25 06:37 -6.37438 38.77265 8032 ft 186 kts 226°
2026-04-25 06:37 -6.38290 38.76270 8034 ft 187 kts 226°
2026-04-25 06:37 -6.39137 38.75279 8031 ft 186 kts 226°
2026-04-25 06:38 -6.39973 38.74304 8040 ft 185 kts 225°
2026-04-25 06:38 -6.40819 38.73311 8039 ft 185 kts 226°
2026-04-25 06:38 -6.41741 38.72424 8031 ft 183 kts 210°
2026-04-25 06:38 -6.42890 38.71917 8023 ft 179 kts 191°
2026-04-25 06:39 -6.44121 38.71842 8024 ft 177 kts 172°
2026-04-25 06:39 -6.45291 38.72188 8023 ft 175 kts 153°
2026-04-25 06:39 -6.46358 38.72770 8025 ft 174 kts 151°
2026-04-25 06:39 -6.47426 38.73347 8026 ft 174 kts 152°
2026-04-25 06:40 -6.48495 38.73924 8026 ft 174 kts 152°
2026-04-25 06:40 -6.49557 38.74498 8026 ft 173 kts 152°
2026-04-25 06:40 -6.50618 38.75073 8027 ft 174 kts 151°
2026-04-25 06:40 -6.51686 38.75651 8022 ft 174 kts 151°
2026-04-25 06:41 -6.52751 38.76228 8023 ft 174 kts 151°
2026-04-25 06:41 -6.53816 38.76804 8024 ft 175 kts 151°
2026-04-25 06:41 -6.54880 38.77380 8024 ft 175 kts 152°
2026-04-25 06:41 -6.55953 38.77961 8021 ft 175 kts 152°
2026-04-25 06:42 -6.57025 38.78542 8021 ft 175 kts 152°
2026-04-25 06:42 -6.58098 38.79123 8022 ft 175 kts 151°
2026-04-25 06:42 -6.59168 38.79703 8022 ft 175 kts 151°
2026-04-25 06:42 -6.60244 38.80285 8021 ft 175 kts 151°
2026-04-25 06:43 -6.61315 38.80865 8024 ft 174 kts 151°
2026-04-25 06:43 -6.62386 38.81445 8028 ft 175 kts 151°
2026-04-25 06:43 -6.63456 38.82025 8027 ft 175 kts 151°
2026-04-25 06:43 -6.64537 38.82581 8030 ft 174 kts 154°
2026-04-25 06:44 -6.65648 38.83079 8014 ft 175 kts 155°
2026-04-25 06:44 -6.66726 38.83609 8011 ft 174 kts 152°
2026-04-25 06:44 -6.67804 38.84193 8007 ft 174 kts 150°
2026-04-25 06:44 -6.68854 38.84773 8003 ft 175 kts 150°
2026-04-25 06:45 -6.69922 38.85360 8003 ft 175 kts 150°
2026-04-25 06:45 -6.70986 38.85943 8003 ft 174 kts 151°
2026-04-25 06:45 -6.72051 38.86528 8004 ft 174 kts 151°
2026-04-25 06:45 -6.73114 38.87111 8004 ft 174 kts 151°
2026-04-25 06:46 -6.74181 38.87697 8006 ft 175 kts 151°
2026-04-25 06:46 -6.75249 38.88283 8006 ft 175 kts 151°
2026-04-25 06:46 -6.76316 38.88868 7997 ft 175 kts 151°
2026-04-25 06:46 -6.77416 38.89471 7778 ft 184 kts 151°
2026-04-25 06:47 -6.78556 38.90096 7528 ft 189 kts 151°
2026-04-25 06:47 -6.79703 38.90724 7275 ft 186 kts 151°
2026-04-25 06:47 -6.80823 38.91338 7033 ft 180 kts 151°
2026-04-25 06:47 -6.81898 38.91928 6805 ft 177 kts 151°
2026-04-25 06:48 -6.82974 38.92519 6568 ft 175 kts 151°
2026-04-25 06:48 -6.84031 38.93099 6336 ft 173 kts 152°
2026-04-25 06:48 -6.85083 38.93676 6102 ft 171 kts 152°
2026-04-25 06:48 -6.86125 38.94249 5876 ft 169 kts 152°
2026-04-25 06:49 -6.87152 38.94813 5651 ft 167 kts 152°
2026-04-25 06:49 -6.88173 38.95374 5434 ft 167 kts 152°
2026-04-25 06:49 -6.89191 38.95933 5205 ft 167 kts 152°
2026-04-25 06:49 -6.90216 38.96495 4981 ft 168 kts 153°
2026-04-25 06:50 -6.91233 38.97054 4758 ft 166 kts 153°
2026-04-25 06:50 -6.92246 38.97611 4534 ft 165 kts 153°
2026-04-25 06:50 -6.93250 38.98163 4318 ft 164 kts 153°
2026-04-25 06:50 -6.94236 38.98704 4105 ft 165 kts 153°
2026-04-25 06:51 -6.95171 38.99365 3879 ft 166 kts 139°
2026-04-25 06:51 -6.95986 39.00193 3680 ft 166 kts 139°
2026-04-25 06:51 -6.96805 39.01011 3473 ft 165 kts 139°
2026-04-25 06:51 -6.97623 39.01829 3266 ft 166 kts 139°
2026-04-25 06:52 -6.98441 39.02646 3041 ft 165 kts 139°
2026-04-25 06:52 -6.99249 39.03455 2837 ft 163 kts 139°
2026-04-25 06:52 -7.00007 39.04310 2626 ft 165 kts 128°
2026-04-25 06:52 -7.00461 39.05386 2416 ft 169 kts 108°
2026-04-25 06:53 -7.00514 39.06573 2297 ft 170 kts 89°
2026-04-25 06:53 -7.00100 39.07683 2289 ft 170 kts 66°
2026-04-25 06:53 -6.99359 39.08607 2288 ft 169 kts 52°
2026-04-25 06:53 -6.98552 39.09457 2285 ft 168 kts 51°
2026-04-25 06:54 -6.97747 39.10283 2290 ft 166 kts 49°
2026-04-25 06:54 -6.96925 39.11097 2295 ft 166 kts 50°
2026-04-25 06:54 -6.96110 39.11923 2248 ft 169 kts 49°
2026-04-25 06:54 -6.95263 39.12776 2061 ft 177 kts 49°
2026-04-25 06:55 -6.94378 39.13671 1826 ft 179 kts 47°
2026-04-25 06:55 -6.93505 39.14541 1596 ft 176 kts 49°
2026-04-25 06:55 -6.92641 39.15412 1368 ft 176 kts 50°
2026-04-25 06:55 -6.91773 39.16289 1131 ft 175 kts 48°
2026-04-25 06:56 -6.90924 39.17141 926 ft 165 kts 48°
2026-04-25 06:56 -6.90142 39.17924 734 ft 153 kts 50°
2026-04-25 06:56 -6.89411 39.18673 549 ft 145 kts 52°
2026-04-25 06:56 -6.88703 39.19375 327 ft 142 kts 46°
2026-04-25 06:57 -6.87945 39.20122 216 ft 166 kts 47°
2026-04-25 06:57 -6.87154 39.20932 174 ft 138 kts 50°
2026-04-25 06:57 -6.86582 39.21500 175 ft 92 kts 34°
2026-04-25 06:57 -6.86408 39.21643 172 ft 26 kts
2026-04-25 06:58 -6.87073 39.20754 177 ft 0 kts 329°
2026-04-25 06:58 -6.87047 39.20676 178 ft 34 kts 318°
2026-04-25 06:58 -6.86934 39.20535 177 ft 1 kts 288°
2026-04-25 06:58 -6.86954 39.20555 177 ft 10 kts 110°
2026-04-25 06:59 -6.86959 39.20568 177 ft 0 kts 109°
2026-04-25 06:59 -6.86960 39.20570 177 ft 0 kts 111°
2026-04-25 06:59 -6.86960 39.20569 177 ft 0 kts 111°
2026-04-25 07:03 -6.86959 39.20569 177 ft 0 kts 111°